TimeEDT,TemperatureF,Dew PointF,Humidity,Sea Level PressureIn,VisibilityMPH,Wind Direction,Wind SpeedMPH,Gust SpeedMPH,PrecipitationIn,Events,Conditions,WindDirDegrees,DateUTC
12:54 AM,52.0,43.0,71,30.01,10.0,Calm,Calm,-,N/A,,Clear,0,2013-05-07 04:54:00
1:54 AM,52.0,42.1,69,30.00,10.0,Calm,Calm,-,N/A,,Partly Cloudy,0,2013-05-07 05:54:00
2:54 AM,50.0,43.0,77,30.00,10.0,Calm,Calm,-,N/A,,Clear,0,2013-05-07 06:54:00
3:54 AM,50.0,43.0,77,29.99,10.0,Calm,Calm,-,N/A,,Clear,0,2013-05-07 07:54:00
4:54 AM,48.9,43.0,80,30.00,10.0,Calm,Calm,-,N/A,,Clear,0,2013-05-07 08:54:00
5:54 AM,48.2,44.6,87,30.01,10.0,Calm,Calm,-,N/A,,Mostly Cloudy,0,2013-05-07 09:54:00
6:54 AM,52.0,45.0,77,30.02,10.0,Calm,Calm,-,N/A,,Clear,0,2013-05-07 10:54:00
7:54 AM,57.0,46.9,69,30.02,10.0,Calm,Calm,-,N/A,,Clear,0,2013-05-07 11:54:00
8:54 AM,62.1,46.9,58,30.04,10.0,ESE,5.8,-,N/A,,Clear,120,2013-05-07 12:54:00
9:54 AM,66.9,50.0,54,30.04,10.0,Calm,Calm,-,N/A,,Clear,0,2013-05-07 13:54:00
10:54 AM,70.0,51.1,51,30.04,10.0,East,3.5,-,N/A,,Clear,100,2013-05-07 14:54:00
11:54 AM,73.9,52.0,46,30.02,10.0,East,8.1,-,N/A,,Clear,100,2013-05-07 15:54:00
12:54 PM,75.9,51.1,42,30.01,10.0,NE,5.8,-,N/A,,Mostly Cloudy,40,2013-05-07 16:54:00
1:54 PM,73.9,48.9,41,30.01,10.0,NE,9.2,-,N/A,,Mostly Cloudy,40,2013-05-07 17:54:00
2:54 PM,73.9,46.0,37,30.00,10.0,ENE,5.8,-,N/A,,Partly Cloudy,70,2013-05-07 18:54:00
3:54 PM,75.9,46.9,36,29.99,10.0,Variable,6.9,-,N/A,,Mostly Cloudy,0,2013-05-07 19:54:00
4:54 PM,73.0,48.0,41,29.98,10.0,Variable,4.6,-,N/A,,Overcast,0,2013-05-07 20:54:00
5:54 PM,71.1,48.0,44,29.99,10.0,North,10.4,-,N/A,,Overcast,350,2013-05-07 21:54:00
6:54 PM,69.1,48.9,49,29.99,10.0,North,4.6,-,N/A,,Overcast,350,2013-05-07 22:54:00
7:54 PM,69.1,48.0,47,29.99,10.0,NNW,5.8,-,N/A,,Overcast,340,2013-05-07 23:54:00
8:54 PM,66.9,46.0,47,30.00,10.0,NNW,9.2,-,N/A,,Overcast,340,2013-05-08 00:54:00
9:54 PM,64.0,43.0,46,30.01,10.0,North,8.1,-,N/A,,Overcast,360,2013-05-08 01:54:00
10:54 PM,62.1,44.1,52,30.02,10.0,North,3.5,-,N/A,,Overcast,350,2013-05-08 02:54:00
11:54 PM,62.1,44.1,52,30.02,10.0,Calm,Calm,-,N/A,,Overcast,0,2013-05-08 03:54:00